COSMOS 2251 DEB, 33922

Orbit data source: Space-Track

COSMOS 2251 DEB, 33922 is space debris in LEO originally from a launch on Wed, 16 Jun 1993 UTC launched from the Plesetsk Missile And Space Complex (PKMTR). The debris from Iridium 33, an American commercial communications satellite, has been tracked extensively since its accidental collision with the defunct Russian satellite Cosmos 2251 in 2009. This event, occurring at high speed in low Earth orbit (LEO), generated thousands of pieces of space debris, significantly increasing the risk of further collisions. The Iridium 33 debris cloud has impacted space traffic management and orbital debris mitigation strategies, making it a subject of ongoing study in space situational awareness.

Loading next visibility...
Identifier
33922, 1993-036EB
Orbit
LEO
Country
Flag of CISCIS
Related business
Manufacturer
Unknown
Mission
Spacecraft
Bus & Motor
Unknown
Mass
Unknown
Launch date (UTC)
1993-06-16 (33 years ago)
Launch vehicle
Unknown
Launch site
Plesetsk Missile And Space Complex (PKMTR)
Object type
Payload
Rocket body
Debris
Shape & HBR
Unknown shape, 0.1 m
Radar Cross Section
Medium (>0.1 m² and <1 m²)

Expand to show TLE details & history
Last TLE update: 1 day ago

TLE from 1 day ago
0 COSMOS 2251 DEB
1 33922U 93036EB  26207.12405400  .00001104  00000-0  29017-3 0  9991
2 33922  74.0463  84.9016 0022323 140.1791  12.5960 14.50159502918449
Epoch: 2026-07-26T02:58Z
TLE epoch observation values (Epoch: 2026-07-26T02:58:38.265Z)
Latitude
26.08304°
Longitude
-91.58532°
Altitude
712.523 km
Speed
7.51 km/s
True Right ascension
17h 07m 36s
True Declination
25° 56' 48"
Sunlit
Object was in daylight at epoch
Visualization orbit readout
Latitude
Unknown
Longitude
Unknown
Altitude
Unknown
Speed
Unknown
Apparent Right ascension
Unknown
Apparent Declination
Unknown
Sunlit
N/A
Visualization observer readout
Local Sidereal Time
16:33:05
Azimuth
Unknown
Elevation
Unknown
Doppler factor
Unknown
Orbital elements
Apogee altitude
738.586 km
Perigee altitude
706.884 km
Semi-major axis
7,100.872 km
Eccentricity
0.00223
Inclination
74.0463°
RAAN
84.9016°
Arg. of periapsis
140.1791°
True anomaly
12.65194°
Mean anomaly
12.596°
Eccentric anomaly
12.62395°
Mean motion
3.62723 °/min
Orbital period
99.25 mins
BSTAR
0.00029017

Documentation

Showing up to 5 results
|